Sallisaw, OK

10:46 AM CDT on April 30, 2017 (GMT -0500)
Sallisaw Municipal

Weather History for KJSV - February, 2013

Change the Weather History Date:

Monday, February 18, 2013

  Actual Average Record
Temperature  
Mean Temperature 55 °F -  
Max Temperature 68 °F 55 °F 80 °F (1986)
Min Temperature 41 °F 32 °F 7 °F (1978)
Degree Days  
Heating Degree Days 10    
Growing Degree Days 5 (Base 50)    
Moisture  
Dew Point 40 °F    
Average Humidity 55    
Maximum Humidity 77    
Minimum Humidity 34    
Precipitation  
Precipitation 0.13 in - - ()
Sea Level Pressure  
Sea Level Pressure 29.83 in    
Wind  
Wind Speed 15 mph (SW)    
Max Wind Speed 29 mph    
Max Gust Speed 38 mph    
Visibility 10 miles    
Events Rain , Thunderstorm    
Averages and records for this station are not official NWS values.
T = Trace of Precipitation, MM = Missing Value Source: NWS Daily Summary

Daily Weather History Graph

Daily Weather History Graph

Search for Another Location

Airport or City:

Trip Planner

Search our weather history database for the weather conditions in past years. The results will help you decide how hot, cold, wet, or windy it might be!

Date:

Astronomy

Feb. 18, 2013 Rise Set
Actual Time 7:02 AM CST 6:04 PM CST
Civil Twilight 6:36 AM CST 6:30 PM CST
Nautical Twilight 6:06 AM CST 7:00 PM CST
Astronomical Twilight 5:36 AM CST 7:29 PM CST
Moon 11:57 AM CST (2/18) 1:36 AM CST (2/18)
Length of Visible Light 11h 54m
Length of Day
11h 02m
First Quarter, 58% of the Moon is Illuminated
Feb 18
First Quarter
Feb 25
Full
Mar 4
Last Quarter
Mar 11
New
Mar 19
First Quarter

Hourly Weather History & Observations

Time (CST) Temp. Windchill Dew Point Humidity Pressure Visibility Wind Dir Wind Speed Gust Speed Precip Events Conditions
12:15 AM 59.0 °F - 30.2 °F 34% 29.87 in 10.0 mi South 12.7 mph 19.6 mph N/A   Clear
12:35 AM 59.0 °F - 32.0 °F 36% 29.87 in 10.0 mi South 10.4 mph 17.3 mph N/A   Clear
12:55 AM 59.0 °F - 32.0 °F 36% 29.87 in 10.0 mi South 10.4 mph 23.0 mph N/A   Clear
1:15 AM 59.0 °F - 32.0 °F 36% 29.87 in 10.0 mi South 12.7 mph 19.6 mph N/A   Clear
1:35 AM 57.2 °F - 33.8 °F 41% 29.87 in 10.0 mi South 11.5 mph 18.4 mph N/A   Clear
1:55 AM 57.2 °F - 35.6 °F 44% 29.87 in 10.0 mi SSW 19.6 mph 26.5 mph N/A   Clear
2:15 AM 55.4 °F - 37.4 °F 51% 29.87 in 10.0 mi South 13.8 mph 23.0 mph N/A   Clear
2:35 AM 55.4 °F - 37.4 °F 51% 29.86 in 10.0 mi SSW 15.0 mph 23.0 mph N/A   Clear
2:55 AM 55.4 °F - 39.2 °F 54% 29.85 in 10.0 mi South 13.8 mph 23.0 mph N/A   Clear
3:15 AM 55.4 °F - 41.0 °F 58% 29.85 in 10.0 mi South 13.8 mph 21.9 mph N/A   Clear
3:35 AM 55.4 °F - 41.0 °F 58% 29.84 in 10.0 mi South 17.3 mph 25.3 mph N/A   Clear
3:55 AM 55.4 °F - 41.0 °F 58% 29.83 in 10.0 mi South 17.3 mph 21.9 mph N/A   Scattered Clouds
4:15 AM 55.4 °F - 42.8 °F 63% 29.82 in 10.0 mi South 17.3 mph 24.2 mph N/A   Mostly Cloudy
4:55 AM 55.4 °F - 42.8 °F 63% 29.82 in 10.0 mi South 15.0 mph 20.7 mph N/A   Overcast
5:15 AM 55.4 °F - 42.8 °F 63% 29.82 in 10.0 mi South 15.0 mph 20.7 mph N/A   Overcast
5:35 AM 55.4 °F - 44.6 °F 67% 29.81 in 10.0 mi South 16.1 mph 24.2 mph N/A   Overcast
5:55 AM 57.2 °F - 44.6 °F 63% 29.80 in 10.0 mi South 15.0 mph 24.2 mph N/A   Overcast
6:15 AM 57.2 °F - 44.6 °F 63% 29.79 in 10.0 mi South 15.0 mph 23.0 mph N/A   Overcast
6:35 AM 57.2 °F - 44.6 °F 63% 29.78 in 10.0 mi SSE 10.4 mph 16.1 mph N/A   Overcast
6:55 AM 57.2 °F - 44.6 °F 63% 29.77 in 10.0 mi South 11.5 mph - N/A   Overcast
7:15 AM 57.2 °F - 46.4 °F 67% 29.77 in 10.0 mi South 15.0 mph 21.9 mph N/A   Overcast
7:35 AM 57.2 °F - 46.4 °F 67% 29.77 in 10.0 mi South 15.0 mph 20.7 mph N/A   Overcast
8:15 AM 59.0 °F - 46.4 °F 63% 29.77 in 10.0 mi South 15.0 mph 21.9 mph N/A   Overcast
8:35 AM 59.0 °F - 46.4 °F 63% 29.77 in 10.0 mi South 19.6 mph 26.5 mph N/A   Overcast
9:15 AM 59.0 °F - 48.2 °F 67% 29.76 in 10.0 mi South 16.1 mph 26.5 mph N/A   Overcast
9:35 AM 59.0 °F - 48.2 °F 67% 29.76 in 10.0 mi South 13.8 mph 26.5 mph N/A   Overcast
9:55 AM 59.0 °F - 48.2 °F 67% 29.75 in 10.0 mi South 15.0 mph 25.3 mph N/A   Overcast
10:15 AM 59.0 °F - 48.2 °F 67% 29.74 in 10.0 mi South 16.1 mph 23.0 mph N/A   Overcast
10:35 AM 60.8 °F - 50.0 °F 68% 29.74 in 10.0 mi South 16.1 mph 25.3 mph N/A   Overcast
11:15 AM 60.8 °F - 50.0 °F 68% 29.72 in 10.0 mi SSW 18.4 mph 24.2 mph N/A   Overcast
11:35 AM 60.8 °F - 50.0 °F 68% 29.72 in 10.0 mi South 20.7 mph 27.6 mph N/A   Overcast
11:55 AM 62.6 °F - 50.0 °F 63% 29.71 in 10.0 mi SSW 20.7 mph 27.6 mph N/A   Overcast
12:15 PM 62.6 °F - 50.0 °F 63% 29.69 in 10.0 mi South 17.3 mph 26.5 mph N/A   Mostly Cloudy
12:35 PM 62.6 °F - 50.0 °F 63% 29.69 in 10.0 mi SSW 19.6 mph 27.6 mph N/A   Mostly Cloudy
12:55 PM 64.4 °F - 50.0 °F 59% 29.68 in 10.0 mi SW 15.0 mph - N/A   Mostly Cloudy
1:15 PM 64.4 °F - 51.8 °F 64% 29.66 in 10.0 mi SSW 16.1 mph 21.9 mph N/A   Mostly Cloudy
1:35 PM 68.0 °F - 50.0 °F 52% 29.64 in 10.0 mi SW 20.7 mph 26.5 mph N/A Thunderstorm Scattered Clouds
1:55 PM 64.4 °F - 50.0 °F 59% 29.62 in 10.0 mi SSW 24.2 mph 31.1 mph N/A Rain Light Rain
2:15 PM 59.0 °F - 51.8 °F 77% 29.66 in 4.0 mi West 17.3 mph 28.8 mph 0.12 in Rain , Thunderstorm Heavy Thunderstorms and Rain
2:35 PM 60.8 °F - 50.0 °F 68% 29.68 in 10.0 mi WNW 15.0 mph 20.7 mph 0.13 in   Mostly Cloudy
2:55 PM 62.6 °F - 42.8 °F 48% 29.70 in 10.0 mi WNW 19.6 mph 31.1 mph 0.13 in   Scattered Clouds
3:15 PM 62.6 °F - 39.2 °F 42% 29.72 in 10.0 mi WNW 25.3 mph 38.0 mph N/A Thunderstorm Clear
3:35 PM 62.6 °F - 35.6 °F 37% 29.73 in 10.0 mi WNW 28.8 mph 33.4 mph N/A   Clear
3:55 PM 60.8 °F - 35.6 °F 39% 29.76 in 10.0 mi WNW 26.5 mph 34.5 mph N/A   Clear
4:15 PM 59.0 °F - 33.8 °F 39% 29.78 in 10.0 mi NW 20.7 mph 32.2 mph N/A   Clear
4:35 PM 59.0 °F - 33.8 °F 39% 29.79 in 10.0 mi WNW 17.3 mph 28.8 mph N/A   Clear
4:55 PM 57.2 °F - 33.8 °F 41% 29.81 in 10.0 mi NW 16.1 mph 21.9 mph N/A   Clear
5:15 PM 55.4 °F - 33.8 °F 44% 29.83 in 10.0 mi NW 20.7 mph 29.9 mph N/A   Clear
5:35 PM 55.4 °F - 33.8 °F 44% 29.85 in 10.0 mi NW 17.3 mph 23.0 mph N/A   Clear
5:55 PM 53.6 °F - 33.8 °F 47% - 10.0 mi NW 17.3 mph 24.2 mph N/A   Clear
6:15 PM 53.6 °F - 33.8 °F 47% 29.88 in 10.0 mi NNW 15.0 mph 19.6 mph N/A   Clear
6:35 PM 53.6 °F - 33.8 °F 47% 29.90 in 10.0 mi NNW 15.0 mph 21.9 mph N/A   Clear
6:55 PM 51.8 °F - 32.0 °F 47% 29.92 in 10.0 mi NW 10.4 mph - N/A   Clear
7:35 PM 51.8 °F - 32.0 °F 47% 29.97 in 10.0 mi NNW 19.6 mph 23.0 mph N/A   Clear
7:55 PM 50.0 °F - 32.0 °F 50% 29.98 in 10.0 mi NNW 16.1 mph 24.2 mph N/A   Clear
8:15 PM 50.0 °F - 32.0 °F 50% 29.99 in 10.0 mi NNW 15.0 mph 20.7 mph N/A   Clear
8:35 PM 48.2 °F - 32.0 °F 54% 30.01 in 10.0 mi NNW 8.1 mph - N/A   Clear
9:15 PM 46.4 °F 40.7 °F 32.0 °F 57% 30.04 in 10.0 mi NNW 12.7 mph 16.1 mph N/A   Clear
9:55 PM 44.6 °F 38.8 °F 32.0 °F 61% 30.07 in 10.0 mi North 11.5 mph 16.1 mph N/A   Clear
10:15 PM 44.6 °F 39.7 °F 32.0 °F 61% 30.09 in 10.0 mi North 9.2 mph 16.1 mph N/A   Clear
10:35 PM 44.6 °F 39.2 °F 30.2 °F 57% 30.10 in 10.0 mi NNW 10.4 mph 18.4 mph N/A   Clear
11:15 PM 42.8 °F 37.0 °F 28.4 °F 57% 30.13 in 10.0 mi NNW 10.4 mph 20.7 mph N/A   Clear
11:35 PM 42.8 °F 36.2 °F 28.4 °F 57% 30.15 in 10.0 mi NNW 12.7 mph 20.7 mph N/A   Clear
11:55 PM 41.0 °F 38.0 °F 28.4 °F 61% 30.17 in 10.0 mi North 4.6 mph - N/A   Clear